Home   Weather   Chicago   Past weeks

Flag for USA Past Weather in Chicago, Illinois, USA — Yesterday and Last 2 Weeks

Now
80 °F

Passing clouds.


Feels Like: 82 °F
Forecast: 73 / 78 °F
Wind: 16 mph from Northeast

Location: Chicago Midway Airport

Current Time: Jul 27, 2017 at 6:04:22 pm

Latest Report: Jul 27, 2017 at 4:53 pm


Visibility: 10 mi

Pressure: 29.89 "Hg

Humidity: 62%

Dew Point: 66 °F

Location of ChicagoLocation

Past Weather in Chicago — Graph

°F

Chicago Temperature Yesterday

Maximum temperature yesterday: 85 °F (at 2:53 pm)
Minimum temperature yesterday: 69 °F (at 4:53 am)
Average temperature yesterday: 78 °F

High & Low Weather Summary for the Past Weeks

 TemperatureHumidityPressure
High90 °F (Jul 23, 12:53 pm)97% (Jul 27, 3:53 am)30.18 "Hg (Jul 27, 3:53 am)
Low58 °F (Jul 17, 4:53 am)31% (Jul 18, 1:53 pm)29.66 "Hg (Jul 22, 7:53 am)
Average76 °F71%29.97 "Hg
* Reported Jul 12 4:53 pm — Jul 27 4:53 pm, Chicago. Weather by CustomWeather, © 2017

Note: Actual official high and low records may vary slightly from our data, if they occured in-between our weather recording intervals... More about our weather records

Advertising

Chicago Weather History for the Previous 24 Hours

Scroll right to see more
 ConditionsComfort  
Time TempWeatherWind HumidityBarometerVisibility
4:53 pm
Thu, Jul 27
80 °FPassing clouds.16 mph62%29.89 "Hg10 mi
3:53 pm81 °FScattered clouds.15 mph67%29.90 "Hg10 mi
2:53 pm80 °FScattered clouds.12 mph69%29.90 "Hg10 mi
1:53 pm81 °FScattered clouds.13 mph69%29.90 "Hg10 mi
12:53 pm81 °FPartly sunny.12 mph69%29.90 "Hg10 mi
11:53 am80 °FBroken clouds.14 mph71%29.91 "Hg10 mi
10:53 am81 °FPartly sunny.15 mph69%29.90 "Hg10 mi
9:53 am79 °FPartly sunny.14 mph74%29.90 "Hg10 mi
8:53 am80 °FBroken clouds.9 mph71%29.89 "Hg9 mi
7:53 am76 °FPartly sunny.6 mph85%29.89 "Hg9 mi
6:53 am76 °FFog.5 mph85%29.88 "Hg6 mi
5:53 am74 °FFog.7 mph94%29.90 "Hg5 mi
5:20 am74 °FFog.7 mph94%29.93 "Hg3 mi
4:53 am74 °FFog.3 mph97%29.89 "Hg2 mi
4:30 am75 °FFog.5 mph94%29.91 "Hg2 mi
3:53 am74 °FFog.6 mph97%29.87 "Hg3 mi
2:53 am75 °FFog.6 mph94%29.86 "Hg5 mi
1:53 am77 °FFog.No wind85%29.88 "Hg5 mi
12:53 am77 °FLight rain. Fog.3 mph88%29.90 "Hg4 mi
11:53 pm
Wed, Jul 26
78 °FLight rain. Fog.3 mph82%29.91 "Hg4 mi
10:53 pm80 °FMostly cloudy.8 mph76%29.93 "Hg10 mi
9:53 pm81 °FMostly cloudy.9 mph74%29.93 "Hg10 mi
8:53 pm81 °FMostly cloudy.8 mph72%29.93 "Hg10 mi
7:53 pm82 °FMostly cloudy.6 mph67%29.95 "Hg10 mi
6:53 pm82 °FMostly cloudy.6 mph67%29.93 "Hg10 mi
Weather by CustomWeather, © 2017

See weather overviewHow to use our weather pages